N747SB MMMX-MMGL

Flight info

Callsign N747SB
Flight time N/A
Altitude 36000
Route OVAGO3A OVAGO UT123 IGSON IGSON1B
Aircraft B748/H-SDE3FGHIM1M2RWXY/LB1

Departure

Time 2026-05-08 04:13
Airport Mexico City Benito Juárez International Airport (MMMX)

Arrival

Time N/A
Airport Guadalajara International Airport (MMGL)
Time Latitude Longitude Altitude Speed Heading
2026-05-08 03:23 19.42426 -99.07770 7312 ft 0 kts 239°
2026-05-08 03:43 19.42434 -99.07755 7312 ft 2 kts 239°
2026-05-08 03:43 19.42443 -99.07739 7312 ft 2 kts 239°
2026-05-08 03:44 19.42452 -99.07723 7312 ft 2 kts 239°
2026-05-08 03:44 19.42457 -99.07713 7312 ft 0 kts 239°
2026-05-08 03:44 19.42459 -99.07710 7312 ft 2 kts 239°
2026-05-08 03:44 19.42460 -99.07709 7312 ft 0 kts 239°
2026-05-08 03:45 19.42460 -99.07708 7312 ft 0 kts 239°
2026-05-08 03:45 19.42460 -99.07709 7312 ft 0 kts 239°
2026-05-08 03:45 19.42459 -99.07711 7312 ft 0 kts 239°
2026-05-08 03:46 19.42458 -99.07713 7312 ft 0 kts 239°
2026-05-08 03:46 19.42457 -99.07715 7312 ft 0 kts 239°
2026-05-08 03:46 19.42456 -99.07716 7312 ft 0 kts 239°
2026-05-08 03:46 19.42455 -99.07718 7312 ft 1 kts 239°
2026-05-08 03:47 19.42441 -99.07748 7312 ft 25 kts 250°
2026-05-08 03:47 19.42431 -99.07798 7312 ft 0 kts 268°
2026-05-08 03:48 19.42432 -99.07785 7312 ft 2 kts 268°
2026-05-08 03:48 19.42434 -99.07770 7312 ft 2 kts 268°
2026-05-08 03:48 19.42436 -99.07755 7312 ft 2 kts 268°
2026-05-08 03:49 19.42438 -99.07740 7312 ft 2 kts 268°
2026-05-08 03:49 19.42440 -99.07725 7312 ft 2 kts 268°
2026-05-08 03:49 19.42441 -99.07718 7312 ft 0 kts 267°
2026-05-08 03:49 19.42441 -99.07719 7312 ft 1 kts 269°
2026-05-08 03:50 19.42454 -99.07738 7312 ft 1 kts 324°
2026-05-08 03:50 19.42470 -99.07747 7312 ft 6 kts 334°
2026-05-08 03:50 19.42518 -99.07770 7312 ft 0 kts 332°
2026-05-08 03:51 19.42519 -99.07770 7312 ft 1 kts 332°
2026-05-08 03:51 19.42552 -99.07787 7312 ft 10 kts 337°
2026-05-08 03:51 19.42630 -99.07813 7312 ft 0 kts 344°
2026-05-08 03:52 19.42640 -99.07816 7312 ft 3 kts 345°
2026-05-08 03:52 19.42667 -99.07826 7312 ft 4 kts 328°
2026-05-08 03:52 19.42700 -99.07848 7312 ft 7 kts 330°
2026-05-08 03:52 19.42703 -99.07850 7312 ft 0 kts 330°
2026-05-08 03:57 19.42701 -99.07849 7312 ft 0 kts 330°
2026-05-08 03:57 19.42706 -99.07852 7312 ft 2 kts 335°
2026-05-08 03:57 19.42732 -99.07858 7312 ft 6 kts 353°
2026-05-08 03:57 19.42785 -99.07856 7312 ft 10 kts
2026-05-08 03:58 19.42858 -99.07833 7312 ft 13 kts 23°
2026-05-08 03:58 19.42942 -99.07786 7312 ft 15 kts 24°
2026-05-08 03:58 19.42957 -99.07780 7313 ft 0 kts 17°
2026-05-08 03:58 19.42958 -99.07780 7313 ft 0 kts 20°
2026-05-08 03:59 19.42963 -99.07773 7312 ft 2 kts 49°
2026-05-08 03:59 19.42984 -99.07730 7313 ft 11 kts 65°
2026-05-08 03:59 19.43033 -99.07640 7313 ft 18 kts 60°
2026-05-08 03:59 19.43103 -99.07510 7313 ft 22 kts 59°
2026-05-08 04:00 19.43187 -99.07367 7312 ft 23 kts 60°
2026-05-08 04:00 19.43252 -99.07213 7312 ft 23 kts 77°
2026-05-08 04:00 19.43296 -99.07057 7312 ft 22 kts 66°
2026-05-08 04:00 19.43375 -99.06927 7309 ft 17 kts 62°
2026-05-08 04:01 19.43419 -99.06821 7312 ft 7 kts 68°
2026-05-08 04:01 19.43419 -99.06820 7312 ft 0 kts 68°
2026-05-08 04:01 19.43420 -99.06818 7312 ft 1 kts 68°
2026-05-08 04:01 19.43433 -99.06791 7312 ft 6 kts 62°
2026-05-08 04:02 19.43468 -99.06753 7312 ft 9 kts 38°
2026-05-08 04:02 19.43533 -99.06711 7312 ft 13 kts 32°
2026-05-08 04:02 19.43604 -99.06632 7313 ft 17 kts 56°
2026-05-08 04:02 19.43671 -99.06513 7313 ft 21 kts 60°
2026-05-08 04:03 19.43751 -99.06365 7313 ft 25 kts 59°
2026-05-08 04:03 19.43955 -99.05996 7312 ft 22 kts 59°
2026-05-08 04:03 19.43965 -99.05977 7312 ft 0 kts 62°
2026-05-08 04:04 19.43968 -99.05972 7312 ft 3 kts 61°
2026-05-08 04:04 19.44016 -99.05883 7312 ft 18 kts 59°
2026-05-08 04:04 19.44038 -99.05843 7312 ft 0 kts 60°
2026-05-08 04:04 19.44049 -99.05823 7312 ft 8 kts 59°
2026-05-08 04:05 19.44078 -99.05773 7312 ft 15 kts 59°
2026-05-08 04:05 19.44149 -99.05648 7313 ft 25 kts 59°
2026-05-08 04:05 19.44243 -99.05473 7314 ft 29 kts 58°
2026-05-08 04:05 19.44313 -99.05367 7314 ft 0 kts 47°
2026-05-08 04:06 19.44320 -99.05360 7314 ft 3 kts 44°
2026-05-08 04:06 19.44322 -99.05358 7314 ft 2 kts 43°
2026-05-08 04:06 19.44330 -99.05351 7314 ft 0 kts 37°
2026-05-08 04:06 19.44344 -99.05343 7314 ft 4 kts 28°
2026-05-08 04:07 19.44370 -99.05339 7313 ft 4 kts 354°
2026-05-08 04:07 19.44378 -99.05341 7314 ft 0 kts 347°
2026-05-08 04:07 19.44375 -99.05340 7314 ft 0 kts 350°
2026-05-08 04:09 19.44374 -99.05340 7313 ft 0 kts 350°
2026-05-08 04:09 19.44375 -99.05340 7313 ft 0 kts 349°
2026-05-08 04:10 19.44392 -99.05347 7314 ft 5 kts 336°
2026-05-08 04:10 19.44441 -99.05371 7313 ft 9 kts 329°
2026-05-08 04:10 19.44458 -99.05409 7313 ft 7 kts 287°
2026-05-08 04:10 19.44456 -99.05448 7313 ft 5 kts 250°
2026-05-08 04:11 19.44447 -99.05468 7313 ft 0 kts 240°
2026-05-08 04:12 19.44391 -99.05560 7313 ft 41 kts 238°
2026-05-08 04:12 19.44142 -99.06014 7310 ft 106 kts 238°
2026-05-08 04:12 19.43632 -99.06932 7312 ft 181 kts 233°
2026-05-08 04:13 19.42801 -99.08181 7752 ft 222 kts 243°
2026-05-08 04:13 19.42160 -99.09706 9046 ft 235 kts 248°
2026-05-08 04:13 19.41433 -99.11339 9866 ft 251 kts 246°
2026-05-08 04:13 19.41064 -99.13174 10960 ft 265 kts 270°
2026-05-08 04:14 19.41254 -99.14922 11870 ft 274 kts 279°
2026-05-08 04:14 19.41728 -99.16861 13241 ft 272 kts 286°
2026-05-08 04:14 19.42257 -99.18812 14333 ft 282 kts 284°
2026-05-08 04:14 19.42842 -99.20921 14674 ft 319 kts 285°
2026-05-08 04:15 19.43507 -99.23376 14464 ft 373 kts 285°
2026-05-08 04:15 19.44290 -99.26079 14948 ft 400 kts 285°
2026-05-08 04:15 19.45081 -99.28959 15802 ft 415 kts 285°
2026-05-08 04:15 19.45906 -99.32001 16001 ft 448 kts 285°
2026-05-08 04:16 19.46816 -99.35279 16198 ft 475 kts 285°
2026-05-08 04:16 19.47728 -99.38442 17111 ft 483 kts 287°
2026-05-08 04:16 19.48860 -99.41895 17078 ft 512 kts 289°
2026-05-08 04:16 19.50006 -99.45663 15713 ft 564 kts 285°
2026-05-08 04:17 19.51135 -99.49762 15417 ft 584 kts 286°
2026-05-08 04:17 19.52320 -99.53773 16933 ft 545 kts 288°
2026-05-08 04:17 19.53470 -99.57368 18864 ft 491 kts 288°
2026-05-08 04:17 19.54538 -99.60729 19019 ft 477 kts 287°
2026-05-08 04:18 19.55446 -99.64176 17144 ft 500 kts 283°
2026-05-08 04:18 19.56284 -99.67907 14773 ft 540 kts 282°
2026-05-08 04:18 19.57073 -99.71832 14055 ft 538 kts 281°
2026-05-08 04:18 19.57793 -99.75604 14640 ft 504 kts 281°
2026-05-08 04:19 19.58595 -99.79115 15194 ft 479 kts 284°
2026-05-08 04:19 19.59647 -99.82451 14610 ft 481 kts 290°
2026-05-08 04:19 19.60821 -99.85796 13677 ft 494 kts 288°
2026-05-08 04:19 19.61812 -99.89239 13791 ft 479 kts 286°
2026-05-08 04:20 19.62838 -99.92560 14264 ft 458 kts 289°
2026-05-08 04:20 19.63868 -99.95665 14269 ft 450 kts 287°
2026-05-08 04:20 19.64695 -99.98903 13633 ft 459 kts 284°
2026-05-08 04:20 19.65393 -100.02235 13055 ft 465 kts 280°
2026-05-08 04:21 19.65995 -100.05622 12444 ft 471 kts 281°
2026-05-08 04:21 19.66730 -100.09020 12206 ft 469 kts 284°
2026-05-08 04:21 19.67550 -100.12321 12369 ft 457 kts 285°
2026-05-08 04:21 19.68405 -100.15566 12002 ft 458 kts 285°
2026-05-08 04:22 19.69249 -100.18849 11868 ft 452 kts 284°
2026-05-08 04:22 19.70098 -100.21900 13075 ft 419 kts 287°
2026-05-08 04:22 19.70923 -100.24934 12099 ft 442 kts 285°
2026-05-08 04:22 19.71735 -100.28101 11944 ft 442 kts 285°
2026-05-08 04:23 19.72626 -100.31168 12338 ft 428 kts 289°
2026-05-08 04:23 19.73653 -100.34068 12331 ft 426 kts 290°
2026-05-08 04:23 19.74598 -100.37082 12010 ft 432 kts 287°
2026-05-08 04:23 19.75422 -100.40137 11998 ft 430 kts 285°
2026-05-08 04:24 19.76231 -100.43198 11831 ft 432 kts 286°
2026-05-08 04:24 19.77094 -100.46249 11845 ft 429 kts 285°
2026-05-08 04:24 19.77848 -100.49291 11885 ft 426 kts 284°
2026-05-08 04:24 19.78632 -100.52364 11387 ft 437 kts 284°
2026-05-08 04:25 19.79370 -100.55508 11218 ft 438 kts 282°
2026-05-08 04:25 19.80022 -100.58689 10952 ft 442 kts 281°
2026-05-08 04:25 19.80618 -100.61432 11726 ft 323 kts 282°
2026-05-08 04:25 19.81303 -100.63728 11880 ft 322 kts 291°
2026-05-08 04:26 19.82177 -100.65861 11987 ft 309 kts 289°
2026-05-08 04:26 19.82884 -100.67993 12090 ft 305 kts 289°
2026-05-08 04:26 19.83412 -100.70164 12188 ft 306 kts 282°
2026-05-08 04:26 19.83915 -100.72370 12090 ft 302 kts 282°
2026-05-08 04:27 19.84413 -100.74551 12114 ft 305 kts 285°
2026-05-08 04:27 19.85036 -100.76676 12089 ft 305 kts 288°
2026-05-08 04:27 19.85715 -100.78807 12027 ft 304 kts 287°
2026-05-08 04:27 19.86334 -100.80957 11986 ft 303 kts 284°
2026-05-08 04:28 19.86862 -100.83126 11981 ft 302 kts 284°
2026-05-08 04:28 19.87391 -100.85293 12156 ft 304 kts 283°
2026-05-08 04:28 19.87875 -100.87480 12313 ft 304 kts 282°
2026-05-08 04:28 19.88350 -100.89676 12459 ft 306 kts 283°
2026-05-08 04:29 19.88876 -100.91875 12267 ft 307 kts 285°
2026-05-08 04:29 19.89469 -100.94034 12142 ft 302 kts 285°
2026-05-08 04:29 19.90076 -100.96171 12270 ft 304 kts 287°
2026-05-08 04:29 19.90664 -100.98330 12392 ft 304 kts 284°
2026-05-08 04:30 19.91163 -101.00494 12511 ft 305 kts 283°
2026-05-08 04:30 19.91645 -101.02698 12554 ft 306 kts 282°
2026-05-08 04:30 19.92120 -101.04898 12552 ft 305 kts 282°
2026-05-08 04:30 19.92592 -101.07098 12554 ft 305 kts 282°
2026-05-08 04:31 19.93063 -101.09294 12535 ft 305 kts 282°
2026-05-08 04:31 19.93534 -101.11494 12514 ft 305 kts 282°
2026-05-08 04:31 19.94005 -101.13692 12488 ft 305 kts 282°
2026-05-08 04:31 19.94477 -101.15891 12463 ft 305 kts 282°
2026-05-08 04:32 19.94948 -101.18088 12433 ft 305 kts 282°
2026-05-08 04:32 19.95419 -101.20281 12406 ft 305 kts 282°
2026-05-08 04:32 19.95891 -101.22478 12378 ft 305 kts 282°
2026-05-08 04:32 19.96351 -101.24380 12375 ft 304 kts 286°
2026-05-08 04:33 19.97002 -101.26524 12193 ft 306 kts 288°
2026-05-08 04:33 19.97693 -101.28666 12023 ft 306 kts 289°
2026-05-08 04:33 19.98387 -101.30800 11758 ft 304 kts 285°
2026-05-08 04:33 19.98944 -101.32955 11886 ft 306 kts 283°
2026-05-08 04:34 19.99286 -101.34413 11957 ft 307 kts 283°
2026-05-08 04:34 19.99783 -101.36613 12068 ft 307 kts 282°
2026-05-08 04:34 20.00277 -101.38831 12171 ft 309 kts 282°
2026-05-08 04:34 20.00771 -101.41055 12167 ft 309 kts 282°
2026-05-08 04:35 20.01420 -101.43994 12166 ft 309 kts 282°
2026-05-08 04:35 20.01906 -101.46216 12169 ft 308 kts 282°
2026-05-08 04:35 20.02234 -101.47718 12169 ft 309 kts 282°
2026-05-08 04:35 20.02717 -101.49944 12174 ft 309 kts 282°
2026-05-08 04:36 20.03205 -101.52167 12173 ft 309 kts 282°
2026-05-08 04:36 20.03652 -101.54196 12172 ft 309 kts 282°
2026-05-08 04:36 20.04031 -101.55917 12172 ft 309 kts 283°
2026-05-08 04:36 20.04569 -101.58163 12168 ft 309 kts 285°
2026-05-08 04:37 20.05102 -101.60381 12169 ft 309 kts 283°
2026-05-08 04:37 20.05590 -101.62564 12169 ft 309 kts 283°
2026-05-08 04:37 20.06080 -101.64801 12169 ft 309 kts 282°
2026-05-08 04:37 20.06568 -101.67030 12170 ft 309 kts 282°
2026-05-08 04:38 20.07055 -101.69262 12164 ft 311 kts 282°
2026-05-08 04:38 20.07548 -101.71524 12164 ft 311 kts 282°
2026-05-08 04:38 20.08031 -101.73741 12157 ft 311 kts 283°
2026-05-08 04:38 20.08512 -101.76009 12160 ft 310 kts 283°
2026-05-08 04:39 20.08973 -101.78246 12159 ft 309 kts 283°
2026-05-08 04:39 20.09420 -101.80436 12158 ft 309 kts 282°
2026-05-08 04:39 20.09878 -101.82686 12159 ft 309 kts 282°
2026-05-08 04:39 20.10331 -101.84918 12159 ft 309 kts 282°
2026-05-08 04:40 20.10784 -101.87153 12156 ft 309 kts 282°
2026-05-08 04:40 20.11237 -101.89388 12155 ft 309 kts 282°
2026-05-08 04:40 20.11693 -101.91622 12155 ft 309 kts 282°
2026-05-08 04:40 20.12151 -101.93857 12155 ft 309 kts 283°
2026-05-08 04:41 20.12607 -101.96090 12153 ft 309 kts 283°
2026-05-08 04:41 20.13063 -101.98325 12152 ft 309 kts 283°
2026-05-08 04:41 20.13519 -102.00555 12152 ft 309 kts 282°
2026-05-08 04:41 20.13979 -102.02790 12153 ft 309 kts 282°
2026-05-08 04:42 20.14444 -102.05032 12163 ft 309 kts 282°
2026-05-08 04:42 20.14921 -102.07261 12156 ft 308 kts 282°
2026-05-08 04:42 20.15408 -102.09481 12157 ft 307 kts 282°
2026-05-08 04:42 20.15898 -102.11692 12157 ft 308 kts 282°
2026-05-08 04:43 20.16391 -102.13902 12153 ft 306 kts 282°
2026-05-08 04:43 20.16886 -102.16109 12153 ft 306 kts 282°
2026-05-08 04:43 20.17378 -102.18322 12153 ft 308 kts 283°
2026-05-08 04:43 20.17870 -102.20535 12147 ft 307 kts 283°
2026-05-08 04:44 20.18364 -102.22745 12145 ft 306 kts 282°
2026-05-08 04:44 20.18863 -102.24953 12145 ft 306 kts 283°
2026-05-08 04:44 20.19363 -102.27156 12147 ft 306 kts 283°
2026-05-08 04:44 20.19864 -102.29360 12145 ft 306 kts 282°
2026-05-08 04:45 20.20445 -102.31548 12087 ft 308 kts 290°
2026-05-08 04:45 20.21294 -102.33635 11939 ft 307 kts 295°
2026-05-08 04:45 20.22289 -102.35605 11772 ft 304 kts 301°
2026-05-08 04:45 20.23496 -102.37441 11606 ft 300 kts 303°
2026-05-08 04:46 20.24664 -102.39277 11515 ft 300 kts 304°
2026-05-08 04:46 20.25862 -102.41101 11390 ft 300 kts 302°
2026-05-08 04:46 20.27053 -102.42955 11187 ft 305 kts 304°
2026-05-08 04:46 20.28329 -102.44760 10957 ft 304 kts 306°
2026-05-08 04:47 20.29496 -102.46606 10855 ft 297 kts 298°
2026-05-08 04:47 20.30323 -102.48611 11243 ft 296 kts 288°
2026-05-08 04:47 20.30922 -102.50754 11700 ft 313 kts 283°
2026-05-08 04:47 20.31472 -102.52980 11831 ft 308 kts 283°
2026-05-08 04:48 20.32015 -102.55201 11932 ft 310 kts 283°
2026-05-08 04:48 20.32546 -102.57434 12039 ft 311 kts 283°
2026-05-08 04:48 20.33065 -102.59648 12126 ft 314 kts 283°
2026-05-08 04:48 20.33458 -102.61335 12132 ft 313 kts 283°
2026-05-08 04:49 20.33953 -102.63474 12140 ft 313 kts 283°
2026-05-08 04:49 20.34480 -102.65721 12139 ft 314 kts 283°
2026-05-08 04:49 20.35009 -102.67986 12142 ft 314 kts 283°
2026-05-08 04:49 20.35532 -102.70224 12142 ft 317 kts 283°
2026-05-08 04:50 20.36063 -102.72495 12145 ft 316 kts 283°
2026-05-08 04:50 20.36592 -102.74764 12145 ft 314 kts 283°
2026-05-08 04:50 20.37115 -102.77026 12146 ft 315 kts 283°
2026-05-08 04:50 20.37649 -102.79288 12154 ft 315 kts 282°
2026-05-08 04:51 20.38205 -102.81549 12149 ft 315 kts 283°
2026-05-08 04:51 20.38765 -102.83796 12151 ft 315 kts 283°
2026-05-08 04:51 20.39332 -102.86063 12152 ft 315 kts 283°
2026-05-08 04:51 20.39893 -102.88321 12144 ft 315 kts 283°
2026-05-08 04:52 20.40443 -102.90573 12145 ft 314 kts 282°
2026-05-08 04:52 20.40996 -102.92832 12150 ft 315 kts 283°
2026-05-08 04:52 20.41554 -102.95093 12151 ft 315 kts 284°
2026-05-08 04:52 20.42098 -102.97349 12151 ft 314 kts 283°
2026-05-08 04:53 20.42637 -102.99600 12148 ft 314 kts 282°
2026-05-08 04:53 20.43188 -103.01868 12148 ft 316 kts 283°
2026-05-08 04:53 20.43748 -103.04129 12147 ft 316 kts 283°
2026-05-08 04:53 20.44309 -103.06390 12155 ft 314 kts 283°
2026-05-08 04:54 20.44880 -103.08611 11814 ft 316 kts 283°
2026-05-08 04:54 20.45426 -103.10942 10874 ft 336 kts 283°
2026-05-08 04:54 20.45903 -103.13369 10478 ft 324 kts 279°
2026-05-08 04:54 20.46317 -103.15798 9377 ft 343 kts 280°
2026-05-08 04:55 20.46804 -103.18189 9005 ft 316 kts 282°
2026-05-08 04:55 20.47332 -103.20483 7800 ft 321 kts 285°
2026-05-08 04:55 20.48055 -103.22607 7428 ft 288 kts 293°
2026-05-08 04:55 20.48916 -103.24444 6594 ft 268 kts 296°
2026-05-08 04:56 20.49743 -103.26104 6248 ft 237 kts 298°
2026-05-08 04:56 20.50545 -103.27631 6047 ft 241 kts 298°
2026-05-08 04:56 20.51271 -103.29128 6313 ft 197 kts 297°
2026-05-08 04:56 20.51775 -103.30337 6180 ft 173 kts 292°
2026-05-08 04:57 20.52095 -103.31057 5247 ft 193 kts 295°